Location: Boursonne
(49.2024°N, 3.0468°E)
Time: 01:41:55
(UTC+00:00)

USA 305 - Pass Details

Date: 03 March 2021
Orbit: 564 x 577 km, 54.0° (Epoch: 10 April)

Event Time Altitude Azimuth Distance (km) Brightness Sun altitude
Rises 18:03:38 0° 264° (W) 2,782 9.3 -5.6°
Reaches altitude 10° 18:05:57 10° 270° (W) 1,883 7.4 -6.0°
Maximum altitude 18:10:08 51° 347° (NNW) 726 3.5 -6.6°
Drops below altitude 10° 18:14:19 10° 64° (ENE) 1,878 5.0 -7.3°
Enters shadow 18:14:51 - 65° (ENE) 2,084 5.2 -7.4°
